TimeEST,TemperatureF,Dew PointF,Humidity,Sea Level PressureIn,VisibilityMPH,Wind Direction,Wind SpeedMPH,Gust SpeedMPH,PrecipitationIn,Events,Conditions,WindDirDegrees,DateUTC
12:15 AM,32.4,18.7,57,29.92,10.0,NNW,3.5,-,N/A,,Overcast,330,2013-03-03 05:15:00
12:35 AM,32.4,18.9,58,29.92,10.0,Calm,Calm,-,N/A,,Overcast,0,2013-03-03 05:35:00
12:55 AM,32.5,18.7,57,29.92,10.0,Calm,Calm,-,N/A,,Overcast,0,2013-03-03 05:55:00
1:15 AM,32.5,18.5,56,29.92,10.0,Calm,Calm,-,N/A,,Overcast,0,2013-03-03 06:15:00
1:35 AM,32.4,18.3,56,29.93,10.0,NW,6.9,-,N/A,,Overcast,320,2013-03-03 06:35:00
1:55 AM,32.2,16.5,53,29.93,10.0,NNW,4.6,-,N/A,,Overcast,340,2013-03-03 06:55:00
2:35 AM,32.0,16.3,52,29.92,10.0,NW,4.6,-,N/A,,Overcast,310,2013-03-03 07:35:00
2:55 AM,32.0,16.7,53,29.91,10.0,NW,3.5,-,N/A,,Overcast,310,2013-03-03 07:55:00
3:15 AM,32.0,17.1,54,29.90,10.0,NNW,4.6,-,N/A,,Overcast,330,2013-03-03 08:15:00
3:55 AM,31.1,15.6,53,29.90,10.0,WNW,3.5,-,N/A,,Scattered Clouds,300,2013-03-03 08:55:00
4:15 AM,29.8,15.8,56,29.91,10.0,WNW,3.5,-,N/A,,Scattered Clouds,290,2013-03-03 09:15:00
4:35 AM,28.9,15.8,58,29.90,10.0,WNW,3.5,-,N/A,,Scattered Clouds,300,2013-03-03 09:35:00
4:55 AM,29.3,15.8,57,29.90,10.0,WNW,3.5,-,N/A,,Clear,300,2013-03-03 09:55:00
5:15 AM,27.9,16.5,62,29.91,10.0,Calm,Calm,-,N/A,,Clear,0,2013-03-03 10:15:00
5:35 AM,27.3,16.7,64,29.91,10.0,Calm,Calm,-,N/A,,Clear,0,2013-03-03 10:35:00
5:55 AM,27.0,16.5,65,29.91,10.0,West,4.6,-,N/A,,Clear,280,2013-03-03 10:55:00
6:15 AM,25.3,17.4,72,29.92,10.0,Calm,Calm,-,N/A,,Clear,0,2013-03-03 11:15:00
7:15 AM,25.7,17.6,71,29.93,10.0,Calm,Calm,-,N/A,,Clear,0,2013-03-03 12:15:00
7:55 AM,29.8,18.1,62,29.94,10.0,Calm,Calm,-,N/A,,Clear,0,2013-03-03 12:55:00
8:15 AM,32.0,17.1,54,29.94,10.0,NW,3.5,-,N/A,,Clear,310,2013-03-03 13:15:00
8:35 AM,32.9,16.3,51,29.94,10.0,West,3.5,-,N/A,,Clear,280,2013-03-03 13:35:00
8:55 AM,33.8,16.2,49,29.94,10.0,NW,8.1,-,N/A,,Clear,320,2013-03-03 13:55:00
9:15 AM,34.3,16.3,48,29.94,10.0,NNW,6.9,-,N/A,,Clear,330,2013-03-03 14:15:00
9:35 AM,35.4,16.3,46,29.94,10.0,NNW,5.8,-,N/A,,Clear,340,2013-03-03 14:35:00
9:55 AM,36.5,16.9,45,29.94,10.0,NW,8.1,-,N/A,,Clear,310,2013-03-03 14:55:00
10:15 AM,37.2,16.9,44,29.94,10.0,NW,6.9,-,N/A,,Clear,310,2013-03-03 15:15:00
10:35 AM,37.2,16.0,42,29.94,10.0,NW,8.1,-,N/A,,Clear,320,2013-03-03 15:35:00
10:55 AM,37.9,16.9,43,29.93,10.0,West,4.6,-,N/A,,Scattered Clouds,270,2013-03-03 15:55:00
11:15 AM,39.0,17.8,42,29.93,10.0,West,10.4,16.1,N/A,,Scattered Clouds,280,2013-03-03 16:15:00
11:35 AM,37.2,17.2,44,29.93,10.0,NNW,4.6,-,N/A,,Scattered Clouds,330,2013-03-03 16:35:00
11:55 AM,39.6,18.7,43,29.92,10.0,Calm,Calm,-,N/A,,Mostly Cloudy,0,2013-03-03 16:55:00
12:15 PM,40.8,18.9,41,29.92,10.0,WNW,6.9,-,N/A,,Mostly Cloudy,290,2013-03-03 17:15:00
12:35 PM,39.9,18.5,42,29.91,10.0,North,5.8,17.3,N/A,,Scattered Clouds,350,2013-03-03 17:35:00
12:55 PM,39.7,18.9,43,29.90,10.0,WNW,5.8,-,N/A,,Mostly Cloudy,300,2013-03-03 17:55:00
1:15 PM,42.3,19.9,41,29.89,10.0,NNW,8.1,-,N/A,,Mostly Cloudy,330,2013-03-03 18:15:00
1:35 PM,41.7,19.8,41,29.88,10.0,NNW,9.2,-,N/A,,Scattered Clouds,340,2013-03-03 18:35:00
1:55 PM,41.9,19.8,41,29.88,10.0,North,6.9,16.1,N/A,,Scattered Clouds,360,2013-03-03 18:55:00
2:15 PM,41.5,19.6,41,29.88,10.0,NNW,9.2,-,N/A,,Scattered Clouds,330,2013-03-03 19:15:00
2:35 PM,41.7,19.2,41,29.88,10.0,North,10.4,16.1,N/A,,Scattered Clouds,350,2013-03-03 19:35:00
2:55 PM,41.7,18.9,40,29.88,10.0,NW,8.1,17.3,N/A,,Scattered Clouds,310,2013-03-03 19:55:00
3:35 PM,41.0,18.3,40,29.88,10.0,North,5.8,-,N/A,,Clear,360,2013-03-03 20:35:00
3:55 PM,40.1,17.1,39,29.89,10.0,NNW,4.6,-,N/A,,Clear,340,2013-03-03 20:55:00
4:35 PM,39.6,17.1,40,29.89,10.0,NNW,4.6,-,N/A,,Clear,330,2013-03-03 21:35:00
5:15 PM,37.6,16.9,43,29.91,10.0,NNW,3.5,-,N/A,,Clear,330,2013-03-03 22:15:00
5:35 PM,36.7,16.3,44,29.91,10.0,NNW,9.2,-,N/A,,Clear,340,2013-03-03 22:35:00
5:55 PM,36.0,16.0,44,29.92,10.0,NW,3.5,-,N/A,,Clear,320,2013-03-03 22:55:00
6:15 PM,35.1,16.0,46,29.92,10.0,NNW,3.5,-,N/A,,Clear,330,2013-03-03 23:15:00
6:35 PM,34.5,15.8,46,29.93,10.0,Calm,Calm,-,N/A,,Clear,0,2013-03-03 23:35:00
6:55 PM,33.6,15.8,48,29.94,10.0,NW,3.5,-,N/A,,Clear,320,2013-03-03 23:55:00
7:15 PM,32.2,15.6,51,29.94,10.0,Calm,Calm,-,N/A,,Clear,0,2013-03-04 00:15:00
7:35 PM,32.0,16.2,52,29.95,10.0,Calm,Calm,-,N/A,,Scattered Clouds,0,2013-03-04 00:35:00
7:55 PM,31.6,18.0,57,29.95,10.0,WNW,3.5,-,N/A,,Overcast,300,2013-03-04 00:55:00
8:15 PM,32.0,16.7,53,29.96,10.0,NW,3.5,-,N/A,,Mostly Cloudy,320,2013-03-04 01:15:00
8:35 PM,32.0,16.7,53,29.96,10.0,Calm,Calm,-,N/A,,Mostly Cloudy,0,2013-03-04 01:35:00
8:55 PM,31.1,16.7,55,29.96,10.0,Calm,Calm,-,N/A,,Mostly Cloudy,0,2013-03-04 01:55:00
9:15 PM,30.0,16.7,58,29.97,10.0,WNW,3.5,-,N/A,,Scattered Clouds,300,2013-03-04 02:15:00
9:35 PM,32.0,15.1,50,29.98,10.0,NNW,8.1,-,N/A,,Clear,340,2013-03-04 02:35:00
9:55 PM,32.0,14.2,48,29.98,10.0,NNW,6.9,-,N/A,,Clear,340,2013-03-04 02:55:00
10:15 PM,31.8,14.4,49,29.98,10.0,NNW,6.9,-,N/A,,Clear,330,2013-03-04 03:15:00
10:35 PM,31.5,14.9,50,29.99,10.0,NW,3.5,-,N/A,,Scattered Clouds,310,2013-03-04 03:35:00
10:55 PM,31.8,14.5,49,29.99,10.0,NW,6.9,-,N/A,,Scattered Clouds,320,2013-03-04 03:55:00
11:15 PM,31.8,14.2,48,29.99,10.0,NW,3.5,-,N/A,,Mostly Cloudy,320,2013-03-04 04:15:00
11:35 PM,31.1,14.0,49,29.99,10.0,NNW,8.1,-,N/A,,Scattered Clouds,330,2013-03-04 04:35:00
11:55 PM,30.9,14.0,50,29.99,10.0,NNW,3.5,-,N/A,,Scattered Clouds,340,2013-03-04 04:55:00